Date String (YYYY-MM-DD hh:mm:ss) UTC,Instrument flags,Ambient pressure (hPa),Sample flow (lpm),Bypass flow (lpm),Sample temperature (°C),Ambient temperature (°C),ASC tube jacket temperature (°C),LED temperature (°C),Box temperature (°C),Sample RH (%),Span deviation,Mass concentration (μg/m³),Mass concentration (μg/m³),Mass concentration (μg/m³)
DateTimeUTC,F1_M11,P_M11,Q1_M11,Q2_M11,T1_M11,T2_M11,T3_M11,T4_M11,T5_M11,U1_M11,ZSPAN_M11,X0_M11,X2_M11,X1_M11
2021-10-26 11:00:00,,0812.3,4.98,0.00,29.0,28.1,00.0,38.0,30.7,11.3,0000.0,0007.13,0003.47,0002.78
2021-10-26 11:01:00,,0812.3,5.00,0.00,29.0,28.1,00.0,38.0,30.7,12.5,0000.0,0008.02,0003.70,0003.00
2021-10-26 11:02:00,,0812.3,5.01,0.00,29.0,28.1,00.0,38.0,30.7,12.7,0000.0,0009.98,0003.92,0003.21
2021-10-26 11:03:00,,0812.3,5.00,0.00,29.0,28.2,00.0,38.1,30.8,12.7,0000.0,0010.96,0004.14,0003.37
2021-10-26 11:04:00,,0812.3,4.99,0.00,29.0,28.2,00.0,38.1,30.8,12.9,0000.0,0011.67,0004.36,0003.54
2021-10-26 11:05:00,,0812.3,5.01,0.00,29.0,28.2,00.0,38.1,30.8,13.1,0000.0,0012.85,0004.61,0003.71
2021-10-26 11:06:00,,0812.4,5.00,0.00,29.0,28.2,00.0,38.0,30.8,12.9,0000.0,0014.51,0004.86,0003.89
2021-10-26 11:07:00,,0812.3,5.00,0.00,29.0,28.2,00.0,38.0,30.7,12.9,0000.0,0015.47,0005.15,0004.08
2021-10-26 11:08:00,,0812.3,5.00,0.00,29.0,28.2,00.0,38.1,30.8,12.9,0000.0,0016.28,0005.42,0004.28
2021-10-26 11:09:00,,0812.3,4.99,0.00,29.0,28.2,00.0,38.1,30.8,12.9,0000.0,0016.98,0005.70,0004.49
2021-10-26 11:10:00,,0812.3,5.01,0.00,29.0,28.2,00.0,38.1,30.8,12.5,0000.0,0017.82,0005.98,0004.68
2021-10-26 11:11:00,,0812.3,5.00,0.00,29.0,28.2,00.0,38.1,30.8,12.3,0000.0,0018.30,0006.13,0004.78
2021-10-26 11:12:00,,0812.2,4.98,0.00,29.1,28.2,00.0,38.1,30.8,12.7,0000.0,0017.90,0006.13,0004.81
2021-10-26 11:13:00,,0812.2,5.01,0.00,29.1,28.2,00.0,38.1,30.8,11.7,0000.0,0016.58,0006.11,0004.79
2021-10-26 11:14:00,,0812.2,5.00,0.00,29.1,28.2,00.0,38.1,30.9,11.7,0000.0,0016.29,0006.00,0004.70
2021-10-26 11:15:00,,0812.1,5.01,0.00,29.1,28.2,00.0,38.1,30.8,11.7,0000.0,0016.20,0005.92,0004.62
2021-10-26 11:16:00,,0812.2,5.01,0.00,29.1,28.2,00.0,38.1,30.8,12.6,0000.0,0015.67,0005.89,0004.61
2021-10-26 11:17:00,,0812.2,5.00,0.00,29.1,28.2,00.0,38.1,30.9,12.5,0000.0,0014.86,0005.88,0004.60
2021-10-26 11:18:00,,0812.1,5.00,0.00,29.1,28.3,00.0,38.1,30.8,12.4,0000.0,0014.38,0005.82,0004.58
2021-10-26 11:19:00,,0812.1,5.00,0.00,29.1,28.3,00.0,38.1,30.8,11.9,0000.0,0013.99,0005.72,0004.51
2021-10-26 11:20:00,,0812.1,5.00,0.00,29.1,28.3,00.0,38.2,30.9,11.8,0000.0,0013.43,0005.61,0004.40
2021-10-26 11:21:00,,0812.2,4.99,0.00,29.1,28.3,00.0,38.2,30.9,11.0,0000.0,0013.19,0005.42,0004.27
2021-10-26 11:22:00,,0812.1,5.00,0.00,29.1,28.3,00.0,38.2,30.9,11.9,0000.0,0013.27,0005.34,0004.21
2021-10-26 11:23:00,,0812.1,5.01,0.00,29.1,28.3,00.0,38.2,30.9,12.2,0000.0,0013.58,0005.33,0004.20
2021-10-26 11:24:00,,0812.0,4.99,0.00,29.1,28.3,00.0,38.2,30.9,12.4,0001.1,0013.94,0005.32,0004.21
2021-10-26 11:25:00,,0812.1,5.00,0.00,29.1,28.3,00.0,38.2,30.9,12.4,0002.8,0013.81,0005.45,0004.30
2021-10-26 11:26:00,,0812.1,5.01,0.00,29.1,28.3,00.0,38.2,30.9,12.2,0001.4,0013.86,0005.54,0004.34
2021-10-26 11:27:00,,0812.1,5.00,0.00,29.1,28.3,00.0,38.2,30.9,11.0,0000.0,0013.84,0005.42,0004.25
2021-10-26 11:28:00,,0812.1,4.99,0.00,29.1,28.3,00.0,38.2,30.9,11.4,0000.0,0013.78,0005.22,0004.11
2021-10-26 11:29:00,,0812.1,5.01,0.00,29.1,28.3,00.0,38.2,30.9,11.6,0000.0,0014.19,0005.16,0004.03
2021-10-26 11:30:00,,0812.1,5.01,0.00,29.1,28.2,00.0,38.2,30.9,11.6,0000.0,0014.84,0005.12,0004.00
2021-10-26 11:31:00,,0812.1,5.00,0.00,29.1,28.2,00.0,38.2,30.9,11.6,0000.0,0015.07,0005.13,0004.00
2021-10-26 11:32:00,,0812.0,5.01,0.00,29.1,28.2,00.0,38.2,30.9,11.6,0000.0,0015.50,0005.22,0004.04
2021-10-26 11:33:00,,0812.0,4.99,0.00,29.1,28.2,00.0,38.2,30.9,11.9,0000.0,0015.11,0005.23,0004.05
2021-10-26 11:34:00,,0811.9,5.00,0.00,29.1,28.2,00.0,38.2,30.9,12.3,0000.0,0015.62,0005.23,0004.05
2021-10-26 11:35:00,,0811.9,4.99,0.00,29.1,28.3,00.0,38.2,30.9,12.8,0000.0,0016.18,0005.31,0004.08
2021-10-26 11:36:00,,0812.0,5.01,0.00,29.1,28.3,00.0,38.2,30.9,12.9,0000.1,0016.20,0005.37,0004.16
2021-10-26 11:37:00,,0812.0,5.00,0.00,29.1,28.3,00.0,38.2,30.9,12.1,0000.8,0015.82,0005.39,0004.18
2021-10-26 11:38:00,,0812.0,5.01,0.00,29.1,28.3,00.0,38.2,30.9,11.7,0000.8,0015.49,0005.42,0004.22
2021-10-26 11:39:00,,0812.0,5.01,0.00,29.1,28.3,00.0,38.2,30.9,11.5,0000.6,0015.26,0005.44,0004.24
2021-10-26 11:40:00,,0812.0,5.01,0.00,29.1,28.2,00.0,38.2,30.9,12.0,0000.2,0014.99,0005.43,0004.25
2021-10-26 11:41:00,,0811.8,4.99,0.00,29.1,28.3,00.0,38.2,30.9,12.2,0000.9,0015.39,0005.52,0004.31
2021-10-26 11:42:00,,0811.8,5.00,0.00,29.1,28.3,00.0,38.2,30.9,11.8,0001.5,0015.30,0005.53,0004.34
2021-10-26 11:43:00,,0811.8,5.01,0.00,29.1,28.2,00.0,38.2,30.9,11.7,0002.1,0014.63,0005.48,0004.33
2021-10-26 11:44:00,,0811.9,4.99,0.00,29.1,28.2,00.0,38.2,30.9,11.6,0002.5,0015.15,0005.47,0004.31
2021-10-26 11:45:00,,0811.9,5.00,0.00,29.1,28.2,00.0,38.2,30.9,11.5,0001.3,0014.24,0005.38,0004.24
2021-10-26 11:46:00,,0811.9,5.00,0.00,29.1,28.3,00.0,38.2,30.9,11.5,0002.4,0013.68,0005.17,0004.11
2021-10-26 11:47:00,,0811.8,5.00,0.00,29.1,28.3,00.0,38.2,30.9,11.8,0001.8,0013.53,0005.07,0003.99
2021-10-26 11:48:00,,0811.8,5.01,0.00,29.1,28.2,00.0,38.2,30.9,11.3,0000.0,0013.52,0004.90,0003.88
2021-10-26 11:49:00,,0811.9,4.99,0.00,29.1,28.2,00.0,38.2,30.9,11.2,0000.0,0013.52,0004.82,0003.82
2021-10-26 11:50:00,,0811.9,4.99,0.00,29.1,28.2,00.0,38.2,30.9,11.5,0000.0,0013.45,0004.79,0003.81
2021-10-26 11:51:00,,0811.8,5.01,0.00,29.1,28.2,00.0,38.2,30.9,11.6,0000.0,0014.02,0004.79,0003.80
2021-10-26 11:52:00,,0811.9,5.00,0.00,29.1,28.2,00.0,38.2,30.9,11.1,0000.0,0012.93,0004.64,0003.71
2021-10-26 11:53:00,,0811.9,5.00,0.00,29.1,28.2,00.0,38.2,30.9,11.3,0000.0,0012.66,0004.56,0003.63
2021-10-26 11:54:00,,0811.9,5.01,0.00,29.1,28.2,00.0,38.2,30.9,11.6,0000.0,0012.84,0004.62,0003.63
2021-10-26 11:55:00,,0811.7,5.00,0.00,29.1,28.2,00.0,38.2,30.9,11.9,0000.0,0012.84,0004.60,0003.60
2021-10-26 11:56:00,,0811.7,4.99,0.00,29.1,28.2,00.0,38.2,30.9,12.0,0000.0,0012.47,0004.58,0003.56
2021-10-26 11:57:00,,0811.7,5.01,0.00,29.1,28.2,00.0,38.2,30.9,11.9,0000.0,0012.01,0004.58,0003.54
2021-10-26 11:58:00,,0811.7,5.00,0.00,29.1,28.2,00.0,38.2,30.9,11.9,0000.0,0012.70,0004.53,0003.47
2021-10-26 11:59:00,,0811.7,4.99,0.00,29.1,28.2,00.0,38.2,30.9,11.9,0000.0,0012.97,0004.50,0003.44
